Tracking 27405 objects as of 1-Jun-2023
HD Live streaming from Space Station
objects crossing your sky now

COSMOS 2251 DEB

Track COSMOS 2251 DEB now!
10-day predictions


NORAD ID: 35660
Int'l Code: 1993-036APB
Perigee: 736.9 km
Apogee: 762.4 km
Inclination: 74.0 °
Period: 99.7 minutes
Semi major axis: 7120 km
RCS: 0.0108 m2 (small)
Launch date: June 16, 1993
Source: Commonwealth of Independent States (former USSR) (CIS)
Launch site: PLESETSK MISSILE AND SPACE COMPLEX (PKMTR)

Note: This is SATELLITE DEBRIS
Your satellite tracking list
Your tracking list is empty




NASA's NSSDC Master Catalog

Two Line Element Set (TLE):
1 35660U 93036APB 23151.03215402  .00001260  00000-0  36915-3 0  9996
2 35660  74.0438  65.3121 0017948  84.6298 287.2160 14.44849899524649
Source of the keplerian elements: AFSPC